Key statistics
Satellite CZ-6A DEB at a glance.
Uptime
182
Days in orbit
Revolutions
≈ 16.0
Per day
Orbit
LEO
Low Earth Orbit
Inclination
88.9
Latest
Satellite identification and parameters
Extended collection of information and parameters for CZ-6A DEB.
Object identification
Identified? True
Debris? True
Object name: CZ-6A DEB
International designator: 2024-140KY
Object number (NORAD): 60893
Object ID (CCSDS): 60893
Country: PEOPLES REPUBLIC OF CHINA (PRC)
Current information (Y/N): Y
RCS size: SMALL
Orbital parameters
Decay date: Feb. 4, 2025
Period: 90.071 minutes
Inclination: 88.8619 deg
SMA: 6656.034 km
Apoapsis: 300.152 km
Periapsis: 255.647 km
RAAN: 325.7943 deg
Eccentricy: 0.0033432
Argument of periapsis: 131.3854 deg
Mean anomaly: 229.0318 deg
Mean motion: 15.98745863 rev/day
Mean motion (dot): 0.08442823 rev/day2
B* drag term: 0.028756 1/REarth
Two-line elements (TLE)
Creation date: Feb. 1, 2025, 5:16 p.m.
Reference frame: TEME
Reference center: EARTH
Epoch: Feb. 1, 2025, 8:14 a.m. UTC
TLE line 0: 0 CZ-6A DEB
TLE line 1: 1 60893U 24140KY 25032.34336598 .08442823 26011+0 28756-1 0 9999
TLE line 2: 2 60893 88.8619 325.7943 0033432 131.3854 229.0318 15.98745863 24941
Live tracking on map
Satellite CZ-6A DEB has decayed and is no longer in orbit. No tracking available.
In-orbit conjunctions
Satellite CZ-6A DEB has decayed and is no longer in orbit. No conjunctions available.
Associated space launch
18 Low Earth Orbit communication satellites with Ku, Q and V band payloads for the G60 constellation operated by Shanghai Spacecom Satellite Technology (SSST) with funding backed by the Shanghai local government. Initial constellation will consist of 1296 satellites by 2027 with long term plans to expand it to 12000 satellites.
CZ-6A DEB was lifted into orbit during the mission ‘Long March 6A | G60 Polar Group 01’, on board a Long March 6A space rocket.
The launch took place on Aug. 6, 2024, 6:42 a.m. from Launch Complex 9A.
For more information about the launch, click the button.
Long March 6A | G60 Polar Group 01
Agency: N/A
Status: Launch Successful
Launch date: Aug. 6, 2024, 6:42 a.m. UTC
Rocket: Long March 6A
Launch pad: Launch Complex 9A
Location: Taiyuan Satellite Launch Center, People's Republic of China
...
Latest news about this satellite
Brightness of first Chinese broadband constellation satellites alarms astronomers
The first satellites of a Chinese broadband constellation are significantly brighter than those of Western systems, posing a new challenge for astronomers.
Chinese rocket stage breaks up into cloud of more than 700 pieces of space debris
HELSINKI — A Chinese Long March 6A rocket’s upper stage has fragmented into a cloud of over 700 pieces of space debris, adding to concerns about long-term orbital safety. China […]
China's Thousand Sails Megaconstellation Kicks Off with Dangerous Debris Field
China's Thousand Sails Megaconstellation Kicks Off with Dangerous Debris Field
Newsletter sign-up
Weekly statistics, charts and insights to help you stay on top of the space industry.
